sat.trackr.live / text

‹ back to catalog

STARLINK-32767

NORAD 62601 · 2025-008Q

PAYLOAD ACTIVE UNKNOWN

§ Identity

Operator
Country
US
Launch date
2025-01-13
Launch site
AFETR
Launch vehicle
Mass (kg)
RCS (m²)

Purposes: comms

External: N2YO · Heavens-Above · Gunter

§ Orbital elements

Epoch: 2026-05-25T04:13:05.480832Z

Period
94.27 min
Inclination
42.9990°
Eccentricity
0.0001216
Mean motion
15.27595082 rev/d
Perigee alt
482.2 km
Apogee alt
483.8 km
Semi-major
6,861.1 km
B*
7.5062e-4
RAAN
205.8192°
Arg perigee
258.4349°
Mean anomaly
101.6366°
Rev number
7,732

§ Raw data

STARLINK-327671 62601U 25008Q   26145.17575788  .00020460  00000+0  75062-3 0  99902 62601  42.9990 205.8192 0001216 258.4349 101.6366 15.27595082 77328

JSON: /api/v1/satellites/62601 · /tle

For live sub-satellite position, see the globe view (requires WebGL).

§ Visibility from observer

Set your observer location to see the next 7 days of passes ≥ 10°. The values pass through the URL so the page stays shareable.

No JS? Fill the form by hand. The geolocation button needs JavaScript.